Flag for Canada Weather past 2 weeks in St. Catharines, Ontario, Canada

Now
60 °F

Cool.


Feels Like: 60 °F
Forecast: 64 / 73 °F
Wind: 10 mph from Northeast

Location: Port Colborne Airport

Current Time: Jul 24, 2014 at 7:24:04 AM

Latest Report: Jul 24, 2014 at 7:00 AM


Visibility: N/A

Pressure: 30.05 "Hg

Humidity: 75%

Dew point: 53 °F

Location of St. CatharinesLocation

Historic Weather in St. Catharines — Graph

°F

St. Catharines temperature yesterday

Maximum temperature yesterday: 75 °F (at 12:00 AM)
Minimum temperature yesterday: 64 °F (at 9:00 PM)
Average temperature yesterday: 70 °F

Past Weeks' High & Low Weather Summary

 TemperatureHumidityPressure
High76 °F (Jul 22, 11:00 PM)93% (Jul 15, 7:00 AM)30.26 "Hg (Jul 15, 7:00 AM)
Low54 °F (Jul 17, 6:00 AM)45% (Jul 10, 7:00 PM)29.68 "Hg (Jul 15, 8:00 AM)
Average68 °F72%30.03 "Hg
* Reported Jul 9 6:00 AM — Jul 24 6:00 AM, St. Catharines, Weather by CustomWeather, © 2014

Note: Actual official high and low records may vary slightly from our data, if they occured in-between our weather recording intervals... More about our weather records

Advertising

St. Catharines weather history for previous 24 hours

 ConditionsComfort  
Time TempWeatherWind HumidityBarometerVisibility
6:00 AM
Jul 24
60 °FCool.10 mph67%30.03 "HgN/A
5:00 AM60 °FCool.10 mph77%30.02 "HgN/A
4:00 AM60 °FCool.9 mph77%30.00 "HgN/A
3:00 AM59 °FCool.9 mph78%30.01 "HgN/A
2:00 AM60 °FCool.9 mph82%30.01 "HgN/A
1:00 AM61 °FCool.8 mph78%30.01 "HgN/A
12:00 AM62 °FCool.8 mph75%30.02 "HgN/A
11:00 PM
Jul 23
64 °FMild.7 mph70%30.01 "HgN/A
10:00 PM65 °FMild.7 mph65%30.01 "HgN/A
9:00 PM64 °FMild.10 mph74%30.00 "HgN/A
8:00 PM65 °FMild.14 mph70%29.98 "HgN/A
7:00 PM67 °FMild.17 mph66%29.96 "HgN/A
6:00 PM69 °FMild.16 mph60%29.95 "HgN/A
5:00 PM69 °FMild.17 mph61%29.95 "HgN/A
4:00 PM72 °FMild.14 mph60%29.93 "HgN/A
3:00 PM70 °FMild.10 mph69%29.94 "HgN/A
2:00 PM69 °FMild.13 mph74%29.93 "HgN/A
1:00 PM69 °FMild.14 mph74%29.92 "HgN/A
12:00 PM67 °FMild.14 mph79%29.91 "HgN/A
11:00 AM69 °FMild.15 mph83%29.90 "HgN/A
10:00 AM72 °FMild.17 mph89%29.89 "HgN/A
9:00 AM72 °FMild.17 mph89%29.89 "HgN/A
7:00 AM73 °FMild.15 mph89%29.88 "HgN/A
Weather by CustomWeather, © 2014

See weather overviewHow to use our weather pages